Regional Weather Roundup
Issued by NWS Lake Charles, LA

Home | Current Version | Previous Version | Text Only | Print | Product List | Glossary On
Versions: 1 2 3 4 5 6 7 8 9 10 11 12 13 14 15 16 17 18 19 20 21 22 23 24 25 26 27 28 29 30 31 32 33 34 35 36 37 38 39 40 41 42 43 44 45 46 47 48 49 50
000
ASUS44 KLCH 090010
RWRLCH
REGIONAL WEATHER ROUNDUP
NATIONAL WEATHER SERVICE LAKE CHARLES LA
600 PM CST MON FEB 08 2016

Note: "fair" indicates few or no clouds below 12,000 feet with no
significant weather and/or obstructions to visibility.


ACROSS SOUTHEAST TEXAS

CITY           SKY/WX    TMP DP  RH WIND       PRES   REMARKS
BEAUMONT       PTCLDY    55  13  18 NW16G28   30.18R
BEAUMONT CITY  FAIR      55  11  17 NW16G24   30.19R
ORANGE         CLEAR     55   0  10 NW12G21   30.19R
JASPER         CLEAR     53  12  19 W12G17    30.20R
$$

ACROSS CENTRAL LOUISIANA

CITY           SKY/WX    TMP DP  RH WIND       PRES   REMARKS
LEESVILLE      CLEAR     51  10  19 NW16      30.13R
FULLERTON      FAIR      51  10  19 VRB7      30.11R
ALEXANDRIA INT CLEAR     50  12  21 NW17G29   30.10R
ESLER FIELD    CLEAR     53  11  18 NW10G21   30.10R
DERIDDER         N/A     53   4  14 NW15G24   30.16R
OAKDALE          N/A     52  12  19 NW8G18    30.13R
OPELOUSAS      FAIR      51  15  23 NW12G18   30.11R
$$

ACROSS SOUTHWEST AND SOUTH CENTRAL LOUISIANA

CITY           SKY/WX    TMP DP  RH WIND       PRES   REMARKS
SULPHUR        CLEAR     55  13  19 MISG      30.16R
LAKE CHARLES   CLEAR     55  14  19 NW15G23   30.15R
CHENNAULT INT  CLEAR     54  12  19 NW17G28   30.15R
CAMERON PHI    CLEAR     55  19  24 NW14G22   30.18R
DEQUINCY       FAIR      53  14  21 NW15G21   30.16R
JENNINGS       FAIR      52  21  30 NW9       30.14R
LAFAYETTE      CLEAR     54  14  20 NW22G29   30.11R
NEW IBERIA     CLEAR     53  16  23 NW22G30   30.11R
ABBEVILLE      FAIR      51  18  27 NW10      30.12R
PATTERSON      CLEAR     54  16  22 NW15G21   30.08R
SALT POINT       N/A     54  34  46 NW12G20   30.09R
$$

SELECTED SITES ACROSS THE REGION

CITY           SKY/WX    TMP DP  RH WIND       PRES   REMARKS
HOUSTON BUSH   PTCLDY    57  13  17 NW17G23   30.23R
HOUSTON HOBBY  PTCLDY    60   6  11 NW23G33   30.22R
GALVESTON      CLEAR     58  22  24 NW26G36   30.21R
COLLEGE STAT   CLEAR     57   8  14 NW21G30   30.26R
CONROE         CLEAR     56  10  16 NW14G24   30.23R
HUNTSVILLE     CLEAR     55   9  16 NW10      30.23R
LUFKIN         CLEAR     52  10  18 NW13G20   30.20R
SHREVEPORT     PTCLDY    51   9  18 NW16      30.13R
MONROE         PTCLDY    50  16  25 NW13      30.08R
NATCHEZ MS     MOCLDY    50  16  25 NW15G25   30.05S
BATON ROUGE    CLEAR     52  11  19 W14G28    30.07R
N.O. INTL ARPT PTCLDY    54  15  21 NW21G30   30.05R
SLIDELL        CLEAR     53  14  21 NW10G21   30.02R
$$

MARINE REPORTS

STATION/POSITION TIME  SKY/WX   TEMP    WIND        PRES    VSBY
                                AIR SEA DIR/SP/G
                 (UTC)          (F)     (DEG/KT/KT) (MB)    (MI)
BUOY 30 S HIGH I 2350            59 59  310/ 21/ 27 1022.1R
WVE H/P(F/S)=  3/ 4

SEA RIM ST PARK  0000            54     320/ 12/ 14 1022.8R
PORT ARTHUR      2300               56  330/ 16/ 21 1021.3R
SABINE PASS N    2300            58 56  310/ 16/ 26 1022.9R
TEXAS POINT      NOT AVBL
CALCASIEU PASS   2300            58 55  340/ 17/ 25 1019.6R
LK CHARLES BEACH 2300            57 55              1020.6R
MARSH ISLAND     NOT AVBL
FRESH WATER LOCK 2300            56 54  290/ 15/ 22 1019.3R
AMERADA PASS     2300            56 52  280/ 19/ 23 1018.3R
$$



USA.gov is the U.S. government's official web portal to all federal, state and local government web resources and services.